| time (UTC) | temp F | wind direction | speed MPH | gust MPH | rain 1hr in | rain 24hr in | rain mn in | humidity % | barometer mb |
| 20260510214515 | 64 | 351 | 5.0 | 8.0 | 0.00 | 0.00 | 0.00 | 39 | 1017.6 |
| 20260510213012 | 63 | 297 | 1.0 | 7.0 | 0.00 | 0.00 | 0.00 | 40 | 1017.4 |
| 20260510211510 | 63 | 16 | 1.0 | 5.0 | 0.00 | 0.00 | 0.00 | 40 | 1017.3 |
| 20260510210010 | 62 | 15 | 4.0 | 10.0 | 0.00 | 0.00 | 0.00 | 42 | 1017.1 |
| 20260510204510 | 63 | 300 | 3.0 | 6.0 | 0.00 | 0.00 | 0.00 | 39 | 1016.9 |
| 20260510203009 | 63 | 306 | 3.0 | 9.0 | 0.00 | 0.00 | 0.00 | 42 | 1016.7 |
| 20260510201508 | 63 | 18 | 6.0 | 10.0 | 0.00 | 0.00 | 0.00 | 40 | 1016.7 |
| 20260510200008 | 63 | 98 | 1.0 | 5.0 | 0.00 | 0.00 | 0.00 | 41 | 1016.9 |
| 20260510194508 | 63 | 22 | 4.0 | 11.0 | 0.00 | 0.00 | 0.00 | 42 | 1017.1 |
| 20260510193006 | 63 | 9 | 3.0 | 8.0 | 0.00 | 0.00 | 0.00 | 41 | 1017.0 |
| 20260510191507 | 62 | 78 | 4.0 | 13.0 | 0.00 | 0.00 | 0.00 | 39 | 1017.2 |
| 20260510190012 | 62 | 89 | 0.0 | 8.0 | 0.00 | 0.00 | 0.00 | 47 | 1017.3 |
| 20260510184512 | 61 | 10 | 2.0 | 8.0 | 0.00 | 0.00 | 0.00 | 44 | 1017.2 |
| 20260510183003 | 61 | 17 | 2.0 | 8.0 | 0.00 | 0.00 | 0.00 | 45 | 1017.4 |
| 20260510181503 | 62 | 15 | 5.0 | 10.0 | 0.00 | 0.00 | 0.00 | 46 | 1017.3 |
| 20260510180002 | 60 | 5 | 2.0 | 11.0 | 0.00 | 0.00 | 0.00 | 46 | 1017.1 |
| 20260510174501 | 60 | 344 | 4.0 | 9.0 | 0.00 | 0.00 | 0.00 | 50 | 1017.1 |
| 20260510173107 | 60 | 89 | 3.0 | 6.0 | 0.00 | 0.00 | 0.00 | 50 | 1017.2 |
| 20260510171559 | 60 | 9 | 4.0 | 8.0 | 0.00 | 0.00 | 0.00 | 51 | 1017.4 |
| 20260510171501 | 60 | 333 | 3.0 | 7.0 | 0.00 | 0.00 | 0.00 | 50 | 1017.4 |
| 20260510170100 | 60 | 92 | 3.0 | 6.0 | 0.00 | 0.00 | 0.00 | 53 | 1017.1 |
| 20260510164558 | 59 | 88 | 2.0 | 8.0 | 0.00 | 0.00 | 0.00 | 55 | 1016.9 |
| 20260510163101 | 59 | 76 | 1.0 | 7.0 | 0.00 | 0.00 | 0.00 | 54 | 1017.1 |
| 20260510161607 | 58 | 20 | 2.0 | 7.0 | 0.00 | 0.00 | 0.00 | 56 | 1017.1 |
| 20260510160138 | 58 | 83 | 2.0 | 10.0 | 0.00 | 0.00 | 0.00 | 55 | 1017.1 |
| 20260510154605 | 58 | 91 | 3.0 | 8.0 | 0.00 | 0.00 | 0.00 | 57 | 1017.1 |
| 20260510153054 | 58 | 360 | 3.0 | 10.0 | 0.00 | 0.00 | 0.00 | 55 | 1016.9 |
| 20260510151554 | 58 | 85 | 2.0 | 7.0 | 0.00 | 0.00 | 0.00 | 56 | 1016.9 |
| 20260510150052 | 57 | 88 | 3.0 | 7.0 | 0.00 | 0.00 | 0.00 | 56 | 1016.7 |
| 20260510144550 | 57 | 84 | 3.0 | 10.0 | 0.00 | 0.00 | 0.00 | 56 | 1016.5 |
| 20260510143047 | 57 | 84 | 2.0 | 7.0 | 0.00 | 0.00 | 0.00 | 55 | 1016.3 |
| 20260510141545 | 57 | 96 | 2.0 | 7.0 | 0.00 | 0.00 | 0.00 | 55 | 1016.0 |
| 20260510140045 | 56 | 95 | 4.0 | 7.0 | 0.00 | 0.00 | 0.00 | 55 | 1015.9 |
| 20260510134543 | 56 | 88 | 2.0 | 6.0 | 0.00 | 0.00 | 0.00 | 53 | 1015.8 |
| 20260510133039 | 55 | 90 | 1.0 | 5.0 | 0.00 | 0.00 | 0.00 | 53 | 1015.5 |
| 20260510131537 | 55 | 13 | 3.0 | 8.0 | 0.00 | 0.00 | 0.00 | 54 | 1015.2 |
| 20260510130036 | 55 | 79 | 3.0 | 5.0 | 0.00 | 0.00 | 0.00 | 52 | 1015.0 |
| 20260510124536 | 54 | 77 | 2.0 | 5.0 | 0.00 | 0.00 | 0.00 | 53 | 1014.8 |
| 20260510123032 | 54 | 69 | 2.0 | 5.0 | 0.00 | 0.00 | 0.00 | 54 | 1014.6 |
| 20260510121531 | 54 | 83 | 2.0 | 6.0 | 0.00 | 0.00 | 0.00 | 51 | 1014.5 |
| 20260510120030 | 54 | 21 | 1.0 | 4.0 | 0.00 | 0.00 | 0.00 | 47 | 1014.2 |
| 20260510114527 | 53 | 17 | 0.0 | 2.0 | 0.00 | 0.00 | 0.00 | 37 | 1013.8 |
| 20260510113035 | 53 | 18 | 0.0 | 5.0 | 0.00 | 0.00 | 0.00 | 31 | 1013.4 |
| 20260510111524 | 53 | 11 | 0.0 | 1.0 | 0.00 | 0.00 | 0.00 | 28 | 1013.4 |
| 20260510110032 | 53 | 11 | 2.0 | 4.0 | 0.00 | 0.00 | 0.00 | 20 | 1013.2 |
| 20260510104520 | 53 | 11 | 0.0 | 2.0 | 0.00 | 0.00 | 0.00 | 24 | 1013.0 |
| 20260510103020 | 53 | 11 | 0.0 | 0.0 | 0.00 | 0.00 | 0.00 | 25 | 1012.9 |
| 20260510101515 | 53 | 11 | 0.0 | 2.0 | 0.00 | 0.00 | 0.00 | 27 | 1012.6 |
| 20260510100013 | 53 | 11 | 0.0 | 0.0 | 0.00 | 0.00 | 0.00 | 25 | 1012.3 |
| 20260510094510 | 53 | 11 | 0.0 | 0.0 | 0.00 | 0.00 | 0.00 | 29 | 1012.1 |
| 20260510093008 | 54 | 11 | 2.0 | 3.0 | 0.00 | 0.00 | 0.00 | 34 | 1011.9 |
| 20260510091506 | 54 | 11 | 0.0 | 0.0 | 0.00 | 0.00 | 0.00 | 47 | 1011.7 |
| 20260510090004 | 55 | 11 | 0.0 | 4.0 | 0.00 | 0.00 | 0.00 | 53 | 1011.3 |
| 20260510084503 | 55 | 5 | 0.0 | 2.0 | 0.00 | 0.00 | 0.00 | 58 | 1012.2 |
| 20260510083111 | 56 | 5 | 0.0 | 2.0 | 0.00 | 0.00 | 0.00 | 58 | 1011.5 |
| 20260510081609 | 56 | 22 | 0.0 | 0.0 | 0.00 | 0.00 | 0.00 | 58 | 1011.2 |
| 20260510080057 | 56 | 22 | 0.0 | 1.0 | 0.00 | 0.00 | 0.00 | 58 | 1010.8 |
| 20260510074602 | 56 | 17 | 1.0 | 5.0 | 0.00 | 0.00 | 0.00 | 57 | 1010.6 |
| 20260510073052 | 57 | 14 | 0.0 | 6.0 | 0.00 | 0.00 | 0.00 | 57 | 1010.6 |
| 20260510071549 | 57 | 9 | 4.0 | 8.0 | 0.00 | 0.00 | 0.00 | 55 | 1010.7 |
| 20260510070047 | 57 | 12 | 1.0 | 5.0 | 0.00 | 0.00 | 0.00 | 57 | 1010.4 |
| 20260510064559 | 58 | 9 | 3.0 | 5.0 | 0.00 | 0.00 | 0.00 | 57 | 1010.4 |
| 20260510063043 | 58 | 360 | 3.0 | 6.0 | 0.00 | 0.00 | 0.00 | 54 | 1010.5 |
| 20260510061541 | 58 | 5 | 3.0 | 6.0 | 0.00 | 0.00 | 0.00 | 55 | 1010.3 |
| 20260510060041 | 59 | 17 | 0.0 | 8.0 | 0.00 | 0.00 | 0.00 | 54 | 1010.1 |
| 20260510054537 | 59 | 16 | 4.0 | 8.0 | 0.00 | 0.00 | 0.00 | 54 | 1010.0 |
| 20260510053034 | 59 | 11 | 6.0 | 9.0 | 0.00 | 0.00 | 0.00 | 55 | 1009.7 |
| 20260510051532 | 60 | 14 | 6.0 | 9.0 | 0.00 | 0.00 | 0.00 | 54 | 1009.6 |
| 20260510050029 | 61 | 349 | 7.0 | 11.0 | 0.00 | 0.00 | 0.00 | 52 | 1009.3 |
| 20260510044533 | 62 | 13 | 7.0 | 9.0 | 0.00 | 0.00 | 0.00 | 54 | 1009.3 |
| 20260510043022 | 62 | 261 | 1.0 | 4.0 | 0.00 | 0.00 | 0.00 | 47 | 1008.9 |
| 20260510041519 | 62 | 360 | 0.0 | 4.0 | 0.00 | 0.00 | 0.00 | 39 | 1008.7 |
| 20260510040015 | 63 | 226 | 1.0 | 6.0 | 0.00 | 0.00 | 0.00 | 33 | 1008.7 |
| 20260510034512 | 63 | 236 | 4.0 | 8.0 | 0.00 | 0.00 | 0.00 | 30 | 1008.5 |
| 20260510033007 | 64 | 360 | 2.0 | 6.0 | 0.00 | 0.00 | 0.00 | 34 | 1008.3 |
| 20260510031503 | 64 | 235 | 2.0 | 6.0 | 0.00 | 0.00 | 0.00 | 36 | 1008.1 |
| 20260510030059 | 64 | 250 | 3.0 | 9.0 | 0.00 | 0.00 | 0.00 | 42 | 1007.8 |
| 20260510024554 | 65 | 360 | 4.0 | 8.0 | 0.00 | 0.00 | 0.00 | 44 | 1007.8 |
| 20260510023052 | 64 | 360 | 2.0 | 6.0 | 0.00 | 0.00 | 0.00 | 47 | 1007.7 |
| 20260510021545 | 65 | 360 | 4.0 | 6.0 | 0.00 | 0.00 | 0.00 | 50 | 1007.5 |
| 20260510020041 | 65 | 360 | 4.0 | 7.0 | 0.00 | 0.00 | 0.00 | 53 | 1007.1 |
| 20260510014536 | 66 | 360 | 5.0 | 9.0 | 0.00 | 0.01 | 0.00 | 55 | 1006.8 |
| 20260510013031 | 65 | 360 | 5.0 | 9.0 | 0.00 | 0.01 | 0.00 | 55 | 1006.6 |
| 20260510011528 | 65 | 360 | 6.0 | 10.0 | 0.00 | 0.01 | 0.00 | 56 | 1006.4 |
| 20260510010023 | 66 | 360 | 5.0 | 9.0 | 0.00 | 0.01 | 0.00 | 56 | 1006.1 |
| 20260510004519 | 66 | 360 | 5.0 | 7.0 | 0.00 | 0.01 | 0.00 | 57 | 1006.2 |
| 20260510003022 | 67 | 242 | 4.0 | 8.0 | 0.00 | 0.01 | 0.00 | 57 | 1005.9 |
| 20260510001509 | 68 | 242 | 5.0 | 10.0 | 0.00 | 0.01 | 0.00 | 55 | 1005.8 |
| 20260510000005 | 68 | 360 | 5.0 | 18.0 | 0.00 | 0.01 | 0.00 | 55 | 1005.8 |
| 20260509234643 | 69 | 223 | 7.0 | 11.0 | 0.00 | 0.01 | 0.00 | 54 | 1005.8 |
| 20260509233056 | 70 | 326 | 6.0 | 14.0 | 0.00 | 0.01 | 0.00 | 53 | 1005.5 |
| 20260509231551 | 70 | 234 | 9.0 | 16.0 | 0.00 | 0.01 | 0.00 | 53 | 1005.5 |
| 20260509230048 | 71 | 196 | 7.0 | 14.0 | 0.00 | 0.01 | 0.00 | 52 | 1005.4 |
| 20260509224543 | 71 | 246 | 6.0 | 14.0 | 0.00 | 0.03 | 0.00 | 49 | 1005.2 |
| 20260509223039 | 72 | 245 | 7.0 | 20.0 | 0.00 | 0.03 | 0.00 | 47 | 1005.0 |
| 20260509221534 | 72 | 190 | 6.0 | 16.0 | 0.00 | 0.03 | 0.00 | 48 | 1005.0 |
| 20260509220030 | 72 | 360 | 8.0 | 18.0 | 0.00 | 0.03 | 0.00 | 47 | 1004.9 |